When you browse on this site, cookies collect data to enhance your experience and personalize the content and advertising you see.
Visit our Privacy Policy to learn more. By continuing to use the site, you agree to this use of cookies and data.
  • In Hungary
  • List of Countries
  • For 7 days
  • Water Temperature
  • Satellite Maps
  • Weather Map
  • News
  • Weather Widgets
  • user-avatar
    Login

    Hourly Weather Ann Arbor

    Today, 18 June, Tuesday

    Time Temperature Precipitation Wind Pressure Humidity
    00:00 +16°C° 0 mm 1 mps 737 mmHg 90%
    01:00 +16°C° 0 mm 1 mps 737 mmHg 90%
    02:00 +16°C° 0 mm 1 mps 737 mmHg 90%
    03:00 +16°C° 0 mm 1 mps 737 mmHg 90%
    04:00 +16°C° 0 mm 1 mps 737 mmHg 88%
    05:00 +18°C° 0 mm 1 mps 737 mmHg 87%
    06:00 +18°C° 0 mm 1 mps 737 mmHg 86%
    07:00 +20°C° 0 mm 1 mps 737 mmHg 81%
    08:00 +21°C° 0 mm 1 mps 737 mmHg 77%
    09:00 +23°C° 0 mm 1 mps 737 mmHg 72%
    10:00 +24°C° 0 mm 1 mps 737 mmHg 70%
    11:00 +25°C° 0 mm 1 mps 737 mmHg 67%
    12:00 +25°C° 0 mm 2 mps 737 mmHg 65%
    13:00 +26°C° 0 mm 1 mps 736 mmHg 64%
    14:00 +26°C° 0 mm 1 mps 736 mmHg 64%
    15:00 +26°C° 0 mm 1 mps 735 mmHg 64%
    16:00 +25°C° 0 mm 1 mps 735 mmHg 69%
    17:00 +24°C° 0 mm 1 mps 735 mmHg 74%
    18:00 +24°C° 0 mm 2 mps 735 mmHg 80%
    19:00 +21°C° 0 mm 2 mps 735 mmHg 83%
    20:00 +20°C° 0 mm 1 mps 734 mmHg 86%
    21:00 +19°C° 0 mm 1 mps 734 mmHg 89%
    22:00 +18°C° 0 mm 1 mps 734 mmHg 89%
    23:00 +18°C° 0 mm 1 mps 734 mmHg 89%

    Tomorrow, 19 June, Wednesday

    Time Temperature Precipitation Wind Pressure Humidity
    00:00 +16°C° 0 mm 0 mps 734 mmHg 89%
    01:00 +16°C° 0 mm 1 mps 733 mmHg 90%
    02:00 +16°C° 0 mm 1 mps 733 mmHg 90%
    03:00 +16°C° 0 mm 1 mps 733 mmHg 90%
    04:00 +18°C° 0 mm 1 mps 733 mmHg 88%
    05:00 +19°C° 0 mm 1 mps 733 mmHg 86%
    06:00 +20°C° 0 mm 1 mps 733 mmHg 84%
    07:00 +21°C° 0 mm 1 mps 733 mmHg 80%
    08:00 +23°C° 0 mm 1 mps 733 mmHg 75%
    09:00 +24°C° 0 mm 1 mps 733 mmHg 71%
    10:00 +25°C° 0.2 mm 1 mps 733 mmHg 69%
    11:00 +26°C° 0.2 mm 1 mps 733 mmHg 67%
    12:00 +27°C° 0.2 mm 1 mps 733 mmHg 64%
    13:00 +27°C° 1 mm 1 mps 732 mmHg 68%
    14:00 +26°C° 1 mm 1 mps 732 mmHg 71%
    15:00 +26°C° 1 mm 2 mps 732 mmHg 75%
    16:00 +25°C° 1 mm 2 mps 731 mmHg 79%
    17:00 +24°C° 1 mm 2 mps 731 mmHg 82%
    18:00 +23°C° 1 mm 2 mps 731 mmHg 86%
    19:00 +21°C° 0.5 mm 2 mps 731 mmHg 87%
    20:00 +20°C° 0.5 mm 2 mps 731 mmHg 88%
    21:00 +19°C° 0.5 mm 2 mps 731 mmHg 89%
    22:00 +18°C° 0.2 mm 2 mps 730 mmHg 89%
    23:00 +18°C° 0.2 mm 2 mps 730 mmHg 89%

    Day after tomorrow, 20 June, Thursday

    Time Temperature Precipitation Wind Pressure Humidity
    00:00 +18°C° 0.2 mm 2 mps 730 mmHg 89%
    01:00 +17°C° 0.3 mm 2 mps 730 mmHg 90%
    02:00 +17°C° 0.3 mm 2 mps 729 mmHg 91%
    03:00 +17°C° 0.3 mm 3 mps 729 mmHg 92%
    04:00 +17°C° 0.2 mm 3 mps 729 mmHg 92%
    05:00 +17°C° 0.2 mm 3 mps 729 mmHg 92%
    06:00 +15°C° 0.2 mm 4 mps 729 mmHg 93%
    07:00 +17°C° 0.1 mm 4 mps 729 mmHg 91%
    08:00 +17°C° 0.1 mm 4 mps 729 mmHg 90%
    09:00 +18°C° 0.1 mm 4 mps 729 mmHg 89%
    10:00 +18°C° 0.7 mm 4 mps 729 mmHg 89%
    11:00 +17°C° 0.7 mm 4 mps 728 mmHg 90%
    12:00 +17°C° 0.7 mm 4 mps 728 mmHg 90%
    13:00 +17°C° 0.7 mm 4 mps 729 mmHg 90%
    14:00 +16°C° 0.7 mm 5 mps 729 mmHg 90%
    15:00 +16°C° 0.7 mm 5 mps 729 mmHg 89%
    16:00 +16°C° 0.2 mm 5 mps 730 mmHg 90%
    17:00 +17°C° 0.2 mm 4 mps 730 mmHg 90%
    18:00 +17°C° 0.2 mm 4 mps 731 mmHg 91%
    19:00 +15°C° 0 mm 4 mps 732 mmHg 91%
    20:00 +15°C° 0 mm 4 mps 732 mmHg 91%
    21:00 +14°C° 0 mm 4 mps 733 mmHg 91%
    22:00 +13°C° 0 mm 4 mps 733 mmHg 88%
    23:00 +12°C° 0 mm 4 mps 734 mmHg 85%

    21 June, Friday

    Time Temperature Precipitation Wind Pressure Humidity
    00:00 +11°C° 0 mm 3 mps 734 mmHg 82%
    01:00 +11°C° 0 mm 3 mps 734 mmHg 82%
    02:00 +10°C° 0 mm 3 mps 735 mmHg 83%
    03:00 +10°C° 0 mm 3 mps 735 mmHg 84%
    04:00 +11°C° 0 mm 3 mps 736 mmHg 84%
    05:00 +12°C° 0 mm 3 mps 737 mmHg 83%
    06:00 +13°C° 0 mm 3 mps 737 mmHg 82%
    07:00 +17°C° 0 mm 3 mps 738 mmHg 76%
    08:00 +19°C° 0 mm 2 mps 738 mmHg 69%
    09:00 +21°C° 0 mm 2 mps 739 mmHg 63%
    10:00 +23°C° 0 mm 2 mps 739 mmHg 59%
    11:00 +24°C° 0 mm 2 mps 739 mmHg 56%
    12:00 +25°C° 0 mm 2 mps 739 mmHg 52%
    13:00 +25°C° 0 mm 2 mps 739 mmHg 52%
    14:00 +25°C° 0 mm 2 mps 739 mmHg 51%
    15:00 +26°C° 0 mm 2 mps 739 mmHg 51%
    16:00 +25°C° 0 mm 1 mps 739 mmHg 56%
    17:00 +24°C° 0 mm 1 mps 739 mmHg 62%
    18:00 +23°C° 0 mm 1 mps 739 mmHg 67%
    19:00 +21°C° 0 mm 1 mps 740 mmHg 69%
    20:00 +20°C° 0 mm 1 mps 740 mmHg 70%
    21:00 +18°C° 0 mm 2 mps 740 mmHg 71%
    22:00 +18°C° 0 mm 1 mps 740 mmHg 78%
    23:00 +16°C° 0 mm 1 mps 739 mmHg 84%

    22 June, Saturday

    Time Temperature Precipitation Wind Pressure Humidity
    00:00 +15°C° 0 mm 1 mps 739 mmHg 90%
    01:00 +15°C° 0 mm 1 mps 739 mmHg 90%
    02:00 +15°C° 0 mm 1 mps 739 mmHg 90%
    03:00 +15°C° 0 mm 1 mps 739 mmHg 90%
    04:00 +15°C° 0 mm 2 mps 740 mmHg 88%
    05:00 +16°C° 0 mm 2 mps 740 mmHg 85%
    06:00 +17°C° 0 mm 3 mps 740 mmHg 82%
    07:00 +19°C° 0 mm 3 mps 740 mmHg 77%
    08:00 +20°C° 0 mm 4 mps 740 mmHg 72%
    09:00 +21°C° 0 mm 5 mps 740 mmHg 68%
    10:00 +22°C° 0 mm 5 mps 740 mmHg 65%
    11:00 +22°C° 0 mm 5 mps 740 mmHg 63%
    12:00 +23°C° 0 mm 5 mps 740 mmHg 61%
    13:00 +23°C° 0 mm 5 mps 740 mmHg 61%
    14:00 +23°C° 0 mm 5 mps 740 mmHg 61%
    15:00 +23°C° 0 mm 4 mps 739 mmHg 62%
    16:00 +22°C° 0 mm 4 mps 739 mmHg 66%
    17:00 +21°C° 0 mm 4 mps 739 mmHg 70%
    18:00 +20°C° 0 mm 4 mps 738 mmHg 74%
    19:00 +19°C° 0 mm 3 mps 739 mmHg 71%
    20:00 +18°C° 0 mm 3 mps 739 mmHg 69%
    21:00 +17°C° 0 mm 3 mps 739 mmHg 67%
    22:00 +17°C° 0.1 mm 3 mps 739 mmHg 68%
    23:00 +17°C° 0.1 mm 3 mps 738 mmHg 69%

    23 June, Sunday

    Time Temperature Precipitation Wind Pressure Humidity
    00:00 +17°C° 0.1 mm 3 mps 738 mmHg 71%
    01:00 +17°C° 0 mm 3 mps 738 mmHg 75%
    02:00 +17°C° 0 mm 3 mps 737 mmHg 79%
    03:00 +17°C° 0 mm 3 mps 737 mmHg 83%
    04:00 +17°C° 0 mm 4 mps 737 mmHg 83%
    05:00 +18°C° 0 mm 4 mps 737 mmHg 84%
    06:00 +19°C° 0 mm 4 mps 737 mmHg 84%
    07:00 +20°C° 0 mm 4 mps 737 mmHg 82%
    08:00 +22°C° 0 mm 4 mps 737 mmHg 81%
    09:00 +23°C° 0 mm 5 mps 737 mmHg 79%
    10:00 +26°C° 0 mm 5 mps 737 mmHg 78%
    11:00 +27°C° 0 mm 5 mps 736 mmHg 77%
    12:00 +29°C° 0 mm 5 mps 736 mmHg 75%
    13:00 +29°C° 0.3 mm 5 mps 735 mmHg 74%
    14:00 +30°C° 0.3 mm 5 mps 734 mmHg 73%
    15:00 +30°C° 0.3 mm 5 mps 734 mmHg 72%
    16:00 +29°C° 1.4 mm 4 mps 733 mmHg 77%
    17:00 +28°C° 1.4 mm 4 mps 733 mmHg 81%
    18:00 +27°C° 1.4 mm 3 mps 733 mmHg 86%
    19:00 +26°C° 2.4 mm 3 mps 733 mmHg 88%
    20:00 +25°C° 2.4 mm 2 mps 733 mmHg 90%
    21:00 +23°C° 2.4 mm 1 mps 732 mmHg 93%
    22:00 +23°C° 0.1 mm 2 mps 732 mmHg 94%
    23:00 +21°C° 0.1 mm 3 mps 732 mmHg 94%
    Show more